Imperial, CA

2:19 PM PST on November 11, 2019 (GMT -0800)
Imperial County

Weather History for KIPL - October, 2019

Change the Weather History Date:

Wednesday, October 23, 2019

  Actual Average Record
Temperature  
Mean Temperature 76 °F -  
Max Temperature 96 °F 86 °F 102 °F (2003)
Min Temperature 57 °F 59 °F 45 °F (1996)
Cooling Degree Days 12    
Growing Degree Days 26 (Base 50)    
Moisture  
Dew Point 33 °F    
Average Humidity 23    
Maximum Humidity 42    
Minimum Humidity 8    
Precipitation  
Precipitation 0.00 in - - ()
Sea Level Pressure  
Sea Level Pressure 29.85 in    
Wind  
Wind Speed 4 mph ()    
Max Wind Speed 8 mph    
Max Gust Speed -    
Visibility 10.0 miles    
Events      
Averages and records for this station are not official NWS values.
T = Trace of Precipitation, MM = Missing Value Source: Averaged Metar Reports

Daily Weather History Graph

Daily Weather History Graph

Search for Another Location

Airport or City:

Astronomy

Oct. 23, 2019 Rise Set
Actual Time 6:52 AM PDT 6:00 PM PDT
Civil Twilight 6:27 AM PDT 6:25 PM PDT
Nautical Twilight 5:58 AM PDT 6:54 PM PDT
Astronomical Twilight 5:29 AM PDT 7:22 PM PDT
Moon 1:39 AM PDT (10/23) 3:32 PM PDT (10/23)
Length of Visible Light 11h 57m
Length of Day
11h 07m
Waning Crescent, 25% of the Moon is Illuminated
Oct 23
Waning Crescent
Oct 27
New
Nov 4
First Quarter
Nov 12
Full
Nov 19
Last Quarter

Hourly Weather History & Observations

Time (PDT) Temp. Dew Point Humidity Pressure Visibility Wind Dir Wind Speed Gust Speed Precip Events Conditions
12:53 AM 64.9 °F 33.1 °F 31% 29.90 in 10.0 mi WSW 3.5 mph - N/A   Clear
1:53 AM 66.0 °F 32.0 °F 28% 29.90 in 10.0 mi West 3.5 mph - N/A   Clear
2:53 AM 64.0 °F 30.0 °F 28% 29.88 in 10.0 mi West 4.6 mph - N/A   Clear
3:53 AM 66.0 °F 30.0 °F 26% 29.87 in 10.0 mi WNW 6.9 mph - N/A   Clear
4:53 AM 60.1 °F 33.1 °F 36% 29.87 in 10.0 mi West 8.1 mph - N/A   Clear
5:53 AM 60.1 °F 32.0 °F 35% 29.87 in 10.0 mi WSW 4.6 mph - N/A   Clear
6:53 AM 57.9 °F 35.1 °F 42% 29.87 in 10.0 mi West 4.6 mph - N/A   Clear
7:53 AM 64.0 °F 28.9 °F 27% 29.88 in 10.0 mi West 3.5 mph - N/A   Clear
8:53 AM 71.1 °F 37.9 °F 30% 29.90 in 10.0 mi Calm Calm - N/A   Clear
9:53 AM 81.0 °F 30.9 °F 16% 29.90 in 10.0 mi North 6.9 mph - N/A   Clear
10:53 AM 86.0 °F 32.0 °F 14% 29.90 in 10.0 mi NNW 6.9 mph - N/A   Clear
11:53 AM 90.0 °F 30.0 °F 12% 29.87 in 10.0 mi NW 3.5 mph - N/A   Clear
12:53 PM 93.0 °F 28.0 °F 10% 29.85 in 10.0 mi Calm Calm - N/A   Clear
1:53 PM 93.9 °F 25.0 °F 8% 29.83 in 10.0 mi North 6.9 mph - N/A   Clear
2:53 PM 96.1 °F 25.0 °F 8% 29.80 in 10.0 mi Calm Calm - N/A   Clear
3:53 PM 95.0 °F 30.0 °F 10% 29.80 in 10.0 mi North 3.5 mph - N/A   Clear
4:53 PM 93.9 °F 28.0 °F 10% 29.78 in 10.0 mi NW 3.5 mph - N/A   Clear
5:53 PM 88.0 °F 36.0 °F 16% 29.77 in 10.0 mi WNW 3.5 mph - N/A   Clear
6:53 PM 82.0 °F 37.0 °F 20% 29.78 in 10.0 mi WSW 4.6 mph - N/A   Clear
7:53 PM 82.0 °F 36.0 °F 19% 29.80 in 10.0 mi Calm Calm - N/A   Clear
8:53 PM 73.9 °F 39.9 °F 29% 29.81 in 10.0 mi WNW 4.6 mph - N/A   Clear
9:53 PM 71.1 °F 39.0 °F 31% 29.83 in 10.0 mi Calm Calm - N/A   Clear
10:53 PM 68.0 °F 39.0 °F 35% 29.84 in 10.0 mi WSW 4.6 mph - N/A   Clear
11:53 PM 66.0 °F 39.9 °F 38% 29.85 in 10.0 mi West 4.6 mph - N/A   Clear